Location: Unspecified
(0.0000°N, 0.0000°E)
Time: 17:36:11
(UTC+00:00)

Injun/Solrad 3 - All Passes

Search period start: 14 March 2026 00:00
Search period end: 24 March 2026 00:00
Orbit: 871 x 985 km, 66.8° (Epoch: 13 March)

Date Brightness Start Highest point End Pass type
(mag) Time Alt. Az. Time Alt. Az. Time Alt. Az.
14 Mar - 02:54:48 10° SE 02:56:20 11° ESE 02:57:50 10° E visible
14 Mar - 04:36:55 10° SW 04:42:32 52° WNW 04:48:10 10° N visible
14 Mar - 15:48:36 10° N 15:54:54 61° ENE 16:01:13 10° SSE daylight
14 Mar - 17:39:08 10° W 17:41:11 12° WSW 17:43:14 10° SW daylight
15 Mar - 03:03:02 10° SSE 03:07:21 21° ESE 03:11:38 10° ENE visible
15 Mar - 04:48:37 10° SW 04:53:31 28° WNW 04:58:25 10° NNW visible
15 Mar - 15:59:28 10° NNW 16:05:53 79° WSW 16:12:18 10° SSE daylight
16 Mar - 03:12:58 10° S 03:18:20 39° ESE 03:23:41 10° NE visible
16 Mar - 05:01:15 10° WSW 05:04:30 15° WNW 05:07:47 10° NW visible
16 Mar - 14:26:49 10° NNE 14:30:37 16° ENE 14:34:25 10° ESE daylight
16 Mar - 16:10:47 10° NW 16:16:51 45° WSW 16:22:57 10° S daylight
17 Mar - 03:23:29 10° SSW 03:29:17 72° ESE 03:35:04 10° NNE visible
17 Mar - 14:36:13 10° NNE 14:41:37 29° ENE 14:47:03 10° SE daylight
17 Mar - 16:22:40 10° NW 16:27:51 26° WSW 16:33:03 10° SSW daylight
18 Mar - 03:34:30 10° SSW 03:40:14 63° WNW 03:45:59 10° N visible
18 Mar - 14:46:27 10° N 14:52:37 50° ENE 14:58:48 10° SE daylight
18 Mar - 16:35:34 10° W 16:38:52 14° WSW 16:42:10 10° SW daylight
19 Mar - 02:01:18 10° SSE 02:05:02 17° ESE 02:08:44 10° ENE night (unlit)
19 Mar - 03:46:00 10° SW 03:51:12 34° WNW 03:56:25 10° N visible
19 Mar - 14:57:10 10° NNW 15:03:36 87° ENE 15:10:01 10° SSE daylight
20 Mar - 02:10:55 10° S 02:16:01 32° ESE 02:21:06 10° NE night (unlit)
20 Mar - 03:58:13 10° WSW 04:02:11 19° WNW 04:06:11 10° NNW night (unlit)
20 Mar - 13:25:26 10° NE 13:28:18 13° ENE 13:31:10 10° E daylight
20 Mar - 15:08:20 10° NNW 15:14:34 54° WSW 15:20:49 10° S daylight
21 Mar - 02:21:16 10° S 02:26:59 58° ESE 02:32:41 10° NNE night (unlit)
21 Mar - 13:34:19 10° NNE 13:39:20 24° ENE 13:44:21 10° ESE daylight
21 Mar - 15:20:01 10° NW 15:25:33 31° WSW 15:31:06 10° S daylight
22 Mar - 02:32:08 10° SSW 02:37:56 77° WNW 02:43:45 10° NNE night (unlit)
22 Mar - 13:44:20 10° N 13:50:20 42° ENE 13:56:19 10° SE daylight
22 Mar - 15:32:28 10° WNW 15:36:34 18° WSW 15:40:40 10° SSW daylight
23 Mar - 00:59:47 10° SE 01:02:42 14° ESE 01:05:38 10° E night (unlit)
23 Mar - 02:43:27 10° SW 02:48:54 42° WNW 02:54:21 10° N night (unlit)
23 Mar - 13:54:55 10° NNW 14:01:18 74° ENE 14:07:42 10° SSE daylight
